Home   Weather   Aurora   Past weeks

Flag for USA Past Weather in Aurora, Colorado, USA — Yesterday and Last 2 Weeks

Now
73 °F

Partly sunny.


Feels Like: 76 °F
Forecast: 63 / 77 °F
Wind: 5 mph from Northeast

Location: Buckley Air Force Base

Current Time: Jul 26, 2017 at 12:59:43 pm

Latest Report: Jul 26, 2017 at 11:58 am


Visibility: 10 mi

Pressure: 30.07 "Hg (24.86 "Hg at 1647m altitude)

Humidity: 62%

Dew Point: 59 °F

Location of AuroraLocation

Past Weather in Aurora — Graph

°F

Aurora Temperature Yesterday

Maximum temperature yesterday: 88 °F (at 1:58 pm)
Minimum temperature yesterday: 67 °F (at 11:58 pm)
Average temperature yesterday: 75 °F

High & Low Weather Summary for the Past Weeks

 TemperatureHumidityPressure
High98 °F (Jul 19, 2:58 pm)100% (Jul 13, 12:58 am)30.19 "Hg (Jul 13, 12:58 am)
Low56 °F (Jul 16, 4:58 am)10% (Jul 24, 3:58 pm)29.77 "Hg (Jul 11, 4:58 pm)
Average74 °F52%29.96 "Hg
* Reported Jul 11 10:58 am — Jul 26 10:58 am, Aurora. Weather by CustomWeather, © 2017

Note: Actual official high and low records may vary slightly from our data, if they occured in-between our weather recording intervals... More about our weather records

Advertising

Aurora Weather History for the Previous 24 Hours

Scroll right to see more
 ConditionsComfort  
Time TempWeatherWind HumidityBarometerVisibility
10:58 am
Wed, Jul 26
71 °FPartly sunny.No wind66%30.07 "Hg10 mi
9:58 am68 °FOvercast.3 mph74%30.09 "Hg10 mi
8:58 am67 °FPartly sunny.6 mph76%30.07 "Hg10 mi
7:58 am66 °FPartly sunny.No wind81%30.06 "Hg10 mi
6:58 am64 °FPartly sunny.3 mph83%30.05 "Hg10 mi
5:58 am62 °FPartly sunny.6 mph88%30.05 "Hg10 mi
4:58 am62 °FPassing clouds.7 mph87%30.04 "Hg10 mi
3:58 am63 °FPassing clouds.5 mph85%30.01 "Hg10 mi
2:58 am63 °FPassing clouds.5 mph86%29.98 "Hg10 mi
1:58 am64 °FPartly cloudy.8 mph81%29.96 "Hg10 mi
12:58 am66 °FPartly cloudy.5 mph97%29.95 "Hg10 mi
11:58 pm
Tue, Jul 25
67 °FPartly cloudy.No wind91%29.97 "Hg10 mi
10:58 pm67 °FPartly cloudy.5 mph84%29.96 "Hg10 mi
9:58 pm67 °FPartly cloudy.No wind81%29.99 "Hg10 mi
8:58 pm67 °FPassing clouds.3 mph82%29.98 "Hg10 mi
7:58 pm68 °FBroken clouds.5 mph82%29.96 "Hg10 mi
6:58 pm69 °FBroken clouds.6 mph80%29.94 "Hg10 mi
5:58 pm70 °FThundershowers. Partly sunny.14 mph76%29.96 "Hg10 mi
4:58 pm71 °FThundershowers. Partly sunny.10 mph66%29.93 "Hg10 mi
3:58 pm82 °FLight rain. Partly sunny.16 mph37%29.85 "Hg10 mi
2:58 pm88 °FBroken clouds.5 mph26%29.82 "Hg10 mi
1:58 pm88 °FPartly sunny.6 mph27%29.83 "Hg10 mi
12:58 pm87 °FBroken clouds.9 mph28%29.84 "Hg10 mi
Weather by CustomWeather, © 2017

See weather overviewHow to use our weather pages